Weather History for Kremmling, CO

Change the Weather History Date:

Sunday, May 4, 2014

  Actual Average (KEGE) Record (KEGE)
Temperature  
Mean Temperature 52 °F -  
Max Temperature 73 °F 67 °F 82 °F (1966)
Min Temperature 32 °F 31 °F 15 °F (1967)
Degree Days  
Heating Degree Days 12    
Growing Degree Days 2 (Base 50)    
Moisture  
Dew Point 11 °F    
Average Humidity 28    
Maximum Humidity 70    
Minimum Humidity 5    
Precipitation  
Precipitation 0.00 in - - ()
Sea Level Pressure  
Sea Level Pressure 30.05 in    
Wind  
Wind Speed 9 mph (SW)    
Max Wind Speed 30 mph    
Max Gust Speed 40 mph    
Visibility 10 miles    
Events      
Averages and records for this station are not official NWS values.
T = Trace of Precipitation, MM = Missing Value Source: NWS Daily Summary

Daily Weather History Graph

Daily Weather History Graph

Search for Another Location

Airport:

Trip Planner

Search our weather history database for the weather conditions in past years. The results will help you decide how hot, cold, wet, or windy it might be!

Date:

Astronomy

May. 04, 2014 Rise Set
Actual Time 6:01 AM MDT 8:03 PM MDT
Civil Twilight 5:32 AM MDT 8:33 PM MDT
Nautical Twilight 4:55 AM MDT 9:09 PM MDT
Astronomical Twilight 4:16 AM MDT 9:48 PM MDT
Moon 10:28 AM MDT (5/4) 12:10 AM MDT (5/4)
Length of Visible Light 15h 01m
Length of Day
14h 01m
Waxing Crescent, 28% of the Moon is Illuminated
May 4
Waxing Crescent
May 6
First Quarter
May 14
Full
May 21
Last Quarter
May 28
New

Hourly Weather History & Observations

Time (MDT) Temp. Windchill Dew Point Humidity Pressure Visibility Wind Dir Wind Speed Gust Speed Precip Events Conditions
12:16 AM 39.2 °F 35.9 °F 21.2 °F 49% 30.10 in 10.0 mi SE 4.6 mph - N/A   Clear
12:36 AM 41.0 °F 39.0 °F 21.2 °F 45% 30.10 in 10.0 mi SE 3.5 mph - N/A   Clear
12:56 AM 37.4 °F - 23.0 °F 56% 30.10 in 10.0 mi Calm Calm - N/A   Clear
1:16 AM 37.4 °F - 23.0 °F 56% 30.09 in 10.0 mi Calm Calm - N/A   Clear
1:36 AM 35.6 °F - 21.2 °F 56% 30.09 in 10.0 mi Calm Calm - N/A   Clear
1:56 AM 35.6 °F - 23.0 °F 60% 30.08 in 10.0 mi Calm Calm - N/A   Clear
2:15 AM 35.6 °F - 21.2 °F 56% 30.08 in 10.0 mi Calm Calm - N/A   Clear
2:36 AM 35.6 °F 29.9 °F 23.0 °F 60% 30.08 in 10.0 mi ESE 6.9 mph - N/A   Scattered Clouds
2:56 AM 35.6 °F 30.7 °F 21.2 °F 56% 30.08 in 10.0 mi East 5.8 mph - N/A   Clear
3:15 AM 35.6 °F 31.7 °F 21.2 °F 56% 30.08 in 10.0 mi ESE 4.6 mph - N/A   Clear
3:36 AM 35.6 °F - 23.0 °F 60% 30.08 in 10.0 mi Calm Calm - N/A   Clear
3:55 AM 33.8 °F 28.6 °F 21.2 °F 60% 30.08 in 10.0 mi ESE 5.8 mph - N/A   Clear
4:16 AM 35.6 °F 32.8 °F 23.0 °F 60% 30.08 in 10.0 mi South 3.5 mph - N/A   Clear
4:36 AM 33.8 °F - 24.8 °F 70% 30.08 in 10.0 mi Calm Calm - N/A   Clear
4:56 AM 33.8 °F 29.6 °F 23.0 °F 65% 30.09 in 10.0 mi SE 4.6 mph - N/A   Clear
5:16 AM 32.0 °F 28.7 °F 23.0 °F 69% 30.09 in 10.0 mi SE 3.5 mph - N/A   Clear
5:36 AM 35.6 °F 28.0 °F 23.0 °F 60% 30.09 in 10.0 mi East 10.4 mph - N/A   Clear
5:56 AM 35.6 °F 30.7 °F 23.0 °F 60% 30.10 in 10.0 mi ESE 5.8 mph - N/A   Clear
6:16 AM 33.8 °F 27.7 °F 23.0 °F 65% 30.10 in 10.0 mi ESE 6.9 mph - N/A   Clear
6:36 AM 33.8 °F 29.6 °F 23.0 °F 65% 30.10 in 10.0 mi ESE 4.6 mph - N/A   Clear
6:56 AM 33.8 °F 25.8 °F 23.0 °F 65% 30.10 in 10.0 mi ESE 10.4 mph - N/A   Clear
7:16 AM 35.6 °F 30.7 °F 24.8 °F 65% 30.10 in 10.0 mi SE 5.8 mph - N/A   Clear
7:36 AM 41.0 °F 38.0 °F 24.8 °F 53% 30.10 in 10.0 mi SSE 4.6 mph - N/A   Clear
7:56 AM 41.0 °F 37.1 °F 24.8 °F 53% 30.10 in 10.0 mi SE 5.8 mph - N/A   Clear
8:16 AM 42.8 °F 40.1 °F 26.6 °F 53% 30.10 in 10.0 mi South 4.6 mph - N/A   Clear
8:36 AM 50.0 °F - 26.6 °F 40% 30.09 in 10.0 mi ESE 5.8 mph - N/A   Clear
8:56 AM 55.4 °F - 21.2 °F 26% 30.07 in 10.0 mi SE 4.6 mph - N/A   Clear
9:16 AM 57.2 °F - 19.4 °F 23% 30.07 in 10.0 mi Calm Calm - N/A   Clear
9:36 AM 60.8 °F - 10.4 °F 14% 30.07 in 10.0 mi WSW 16.1 mph 25.3 mph N/A   Clear
9:56 AM 62.6 °F - 5.0 °F 10% 30.06 in 10.0 mi WSW 23.0 mph 34.5 mph N/A   Clear
10:16 AM 66.2 °F - 5.0 °F 9% 30.06 in 10.0 mi WSW 23.0 mph 31.1 mph N/A   Clear
10:35 AM 68.0 °F - 5.0 °F 8% 30.06 in 10.0 mi WSW 24.2 mph 35.7 mph N/A   Clear
10:56 AM 69.8 °F - 5.0 °F 8% 30.06 in 10.0 mi WSW 25.3 mph 34.5 mph N/A   Clear
11:16 AM 69.8 °F - 1.4 °F 7% 30.06 in 10.0 mi WSW 23.0 mph 40.3 mph N/A   Clear
11:36 AM 69.8 °F - -0.4 °F 6% 30.05 in 10.0 mi WSW 17.3 mph 40.3 mph N/A   Clear
11:56 AM 69.8 °F - 1.4 °F 7% 30.05 in 10.0 mi WSW 26.5 mph 33.4 mph N/A   Clear
12:16 PM 71.6 °F - 1.4 °F 6% 30.04 in 10.0 mi WSW 23.0 mph 34.5 mph N/A   Clear
12:36 PM 69.8 °F - -0.4 °F 6% 30.04 in 10.0 mi WSW 16.1 mph 34.5 mph N/A   Clear
12:56 PM 71.6 °F - -0.4 °F 6% 30.03 in 10.0 mi WSW 23.0 mph 32.2 mph N/A   Clear
1:16 PM 69.8 °F - -0.4 °F 6% 30.03 in 10.0 mi WSW 24.2 mph 35.7 mph N/A   Clear
1:36 PM 71.6 °F - -4.0 °F 5% 30.02 in 10.0 mi West 18.4 mph 39.1 mph N/A   Clear
1:56 PM 71.6 °F - 1.4 °F 6% 30.01 in 10.0 mi West 29.9 mph 38.0 mph N/A   Clear
2:16 PM 71.6 °F - 1.4 °F 6% 30.00 in 10.0 mi WSW 21.9 mph 33.4 mph N/A   Clear
2:36 PM 73.4 °F - 3.2 °F 6% 30.01 in 10.0 mi WSW 27.6 mph 35.7 mph N/A   Clear
2:56 PM 73.4 °F - 1.4 °F 6% 30.01 in 10.0 mi West 26.5 mph 39.1 mph N/A   Clear
3:16 PM 73.4 °F - -0.4 °F 5% 30.00 in 10.0 mi WSW 21.9 mph 38.0 mph N/A   Clear
3:36 PM 73.4 °F - 3.2 °F 6% 29.99 in 10.0 mi West 26.5 mph 35.7 mph N/A   Clear
3:56 PM 73.4 °F - 3.2 °F 6% 29.99 in 10.0 mi WSW 20.7 mph 31.1 mph N/A   Clear
4:16 PM 73.4 °F - 3.2 °F 6% 29.99 in 10.0 mi WSW 16.1 mph 26.5 mph N/A   Clear
4:36 PM 71.6 °F - 1.4 °F 6% 29.99 in 10.0 mi WSW 13.8 mph 31.1 mph N/A   Clear
4:56 PM 73.4 °F - 1.4 °F 6% 29.99 in 10.0 mi WSW 17.3 mph 26.5 mph N/A   Clear
5:15 PM 69.8 °F - 1.4 °F 7% 29.99 in 10.0 mi West 18.4 mph 26.5 mph N/A   Clear
5:36 PM 69.8 °F - 1.4 °F 7% 29.99 in 10.0 mi West 15.0 mph 26.5 mph N/A   Clear
5:56 PM 69.8 °F - 3.2 °F 7% 29.99 in 10.0 mi WSW 17.3 mph 23.0 mph N/A   Clear
6:15 PM 69.8 °F - 3.2 °F 7% 30.00 in 10.0 mi West 12.7 mph 18.4 mph N/A   Clear
6:36 PM 68.0 °F - 3.2 °F 8% 30.00 in 10.0 mi West 19.6 mph 27.6 mph N/A   Clear
6:55 PM 66.2 °F - 3.2 °F 8% 30.01 in 10.0 mi West 9.2 mph 24.2 mph N/A   Clear
7:16 PM 64.4 °F - 1.4 °F 8% 30.01 in 10.0 mi West 19.6 mph 25.3 mph N/A   Clear
7:36 PM 62.6 °F - 1.4 °F 9% 30.02 in 10.0 mi West 9.2 mph 21.9 mph N/A   Clear
7:56 PM 60.8 °F - 3.2 °F 10% 30.02 in 10.0 mi West 9.2 mph - N/A   Clear
8:16 PM 59.0 °F - 5.0 °F 12% 30.03 in 10.0 mi WSW 5.8 mph 17.3 mph N/A   Clear
8:36 PM 59.0 °F - 6.8 °F 13% 30.04 in 10.0 mi West 4.6 mph - N/A   Clear
8:56 PM 59.0 °F - 5.0 °F 12% 30.04 in 10.0 mi SW 4.6 mph - N/A   Clear
9:16 PM 55.4 °F - 6.8 °F 14% 30.05 in 10.0 mi WSW 6.9 mph - N/A   Clear
9:35 PM 55.4 °F - 8.6 °F 15% 30.05 in 10.0 mi SW 6.9 mph - N/A   Clear
9:56 PM 53.6 °F - 8.6 °F 16% 30.06 in 10.0 mi SSW 6.9 mph - N/A   Clear
10:16 PM 55.4 °F - 10.4 °F 17% 30.06 in 10.0 mi SW 6.9 mph - N/A   Clear
10:36 PM 53.6 °F - 10.4 °F 18% 30.05 in 10.0 mi SW 8.1 mph - N/A   Clear
10:56 PM 53.6 °F - 10.4 °F 18% 30.05 in 10.0 mi WSW 8.1 mph - N/A   Clear
11:16 PM 53.6 °F - 10.4 °F 18% 30.05 in 10.0 mi WSW 9.2 mph - N/A   Clear
11:36 PM 50.0 °F - 14.0 °F 24% 30.05 in 10.0 mi WSW 3.5 mph - N/A   Clear
11:56 PM 48.2 °F - 14.0 °F 25% 30.06 in 10.0 mi Calm Calm - N/A   Clear